�������l�o���
Date,Time,MP-1(��Sv/h),MP-2(��Sv/h),MP-3(��Sv/h),MP-4(��Sv/h),MP-5(��Sv/h),MP-6(��Sv/h),MP-7(��Sv/h),MP-8(��Sv/h),����,����(m/s),���J
2022/04/18,00:00,0.571,0.846,0.545,1.022,0.728,0.344,0.596,0.565,��쐼,5.1,��
2022/04/18,00:10,0.570,0.845,0.544,1.026,0.726,0.347,0.597,0.562,��쐼,5.2,��
2022/04/18,00:20,0.571,0.846,0.543,1.026,0.729,0.345,0.596,0.564,��쐼,5.0,��
2022/04/18,00:30,0.571,0.844,0.544,1.026,0.728,0.345,0.596,0.565,��쐼,5.7,��
2022/04/18,00:40,0.569,0.847,0.544,1.024,0.727,0.346,0.597,0.564,��,5.5,��
2022/04/18,00:50,0.571,0.848,0.545,1.025,0.728,0.345,0.597,0.564,��쐼,4.4,��
2022/04/18,01:00,0.570,0.845,0.544,1.024,0.727,0.345,0.595,0.564,��,4.4,��
2022/04/18,01:10,0.571,0.845,0.543,1.024,0.728,0.345,0.597,0.563,��,5.6,��
2022/04/18,01:20,0.572,0.845,0.544,1.025,0.727,0.346,0.595,0.565,��,5.5,��
2022/04/18,01:30,0.570,0.846,0.544,1.027,0.726,0.347,0.598,0.564,��,6.4,��
2022/04/18,01:40,0.572,0.847,0.542,1.024,0.730,0.347,0.597,0.564,��,5.9,��
2022/04/18,01:50,0.570,0.846,0.543,1.023,0.729,0.347,0.597,0.564,��,6.4,��
2022/04/18,02:00,0.570,0.845,0.543,1.027,0.727,0.346,0.598,0.564,��,6.1,��
2022/04/18,02:10,0.571,0.845,0.543,1.025,0.729,0.346,0.597,0.565,��,6.0,��
2022/04/18,02:20,0.570,0.846,0.544,1.025,0.726,0.347,0.598,0.564,��,5.9,��
2022/04/18,02:30,0.571,0.845,0.544,1.025,0.728,0.345,0.596,0.565,��,5.1,��
2022/04/18,02:40,0.571,0.845,0.543,1.029,0.725,0.348,0.596,0.565,��,6.1,��
2022/04/18,02:50,0.571,0.845,0.543,1.026,0.731,0.344,0.596,0.565,��,6.1,��
2022/04/18,03:00,0.570,0.846,0.544,1.026,0.727,0.345,0.596,0.565,��,6.2,��
2022/04/18,03:10,0.570,0.845,0.545,1.024,0.727,0.346,0.595,0.564,��,5.7,��
2022/04/18,03:20,0.571,0.845,0.543,1.027,0.727,0.345,0.596,0.563,��,4.9,��
2022/04/18,03:30,0.572,0.847,0.542,1.027,0.727,0.346,0.597,0.564,��,4.7,��
2022/04/18,03:40,0.572,0.845,0.541,1.025,0.728,0.346,0.596,0.565,��,4.6,��
2022/04/18,03:50,0.570,0.845,0.541,1.024,0.727,0.344,0.597,0.564,��,4.9,��
2022/04/18,04:00,0.570,0.845,0.543,1.025,0.726,0.346,0.595,0.565,��,4.8,��
2022/04/18,04:10,0.571,0.846,0.543,1.024,0.728,0.345,0.597,0.564,��쐼,4.1,��
2022/04/18,04:20,0.570,0.845,0.543,1.023,0.727,0.345,0.594,0.563,��,3.4,��
2022/04/18,04:30,0.568,0.846,0.543,1.027,0.727,0.344,0.596,0.564,��,4.3,��
2022/04/18,04:40,0.570,0.846,0.542,1.025,0.727,0.345,0.595,0.564,��,4.7,��
2022/04/18,04:50,0.569,0.846,0.542,1.025,0.728,0.345,0.595,0.563,��,5.2,��
2022/04/18,05:00,0.571,0.846,0.543,1.024,0.727,0.344,0.596,0.563,��,5.0,��
2022/04/18,05:10,0.570,0.845,0.542,1.027,0.728,0.344,0.594,0.564,��,4.9,��
2022/04/18,05:20,0.569,0.846,0.541,1.026,0.729,0.345,0.595,0.564,��,4.8,��
2022/04/18,05:30,0.569,0.843,0.542,1.027,0.729,0.344,0.595,0.564,��,3.7,��
2022/04/18,05:40,0.569,0.847,0.542,1.025,0.727,0.345,0.595,0.565,��,3.6,��
2022/04/18,05:50,0.569,0.846,0.542,1.024,0.728,0.345,0.596,0.564,��,3.0,��
2022/04/18,06:00,0.571,0.847,0.542,1.025,0.729,0.344,0.596,0.564,��,3.6,��
2022/04/18,06:10,0.570,0.843,0.541,1.027,0.727,0.344,0.596,0.562,��쓌,2.9,��
2022/04/18,06:20,0.571,0.846,0.544,1.025,0.727,0.345,0.597,0.565,��,2.8,��
2022/04/18,06:30,0.571,0.846,0.545,1.026,0.729,0.345,0.596,0.564,��,3.6,��
2022/04/18,06:40,0.570,0.847,0.544,1.027,0.728,0.345,0.596,0.565,��,2.3,��
2022/04/18,06:50,0.571,0.849,0.544,1.027,0.729,0.346,0.596,0.565,��쐼,2.6,��
2022/04/18,07:00,0.570,0.849,0.544,1.025,0.728,0.346,0.596,0.564,��쓌,3.6,��
2022/04/18,07:10,0.571,0.849,0.544,1.025,0.729,0.345,0.597,0.565,��쓌,4.1,��
2022/04/18,07:20,0.572,0.846,0.543,1.028,0.728,0.346,0.598,0.564,��쓌,4.2,��
2022/04/18,07:30,0.571,0.847,0.543,1.026,0.730,0.345,0.596,0.564,�쓌,3.9,��
2022/04/18,07:40,0.571,0.846,0.543,1.026,0.730,0.346,0.597,0.564,�쓌,3.5,��
2022/04/18,07:50,0.573,0.848,0.543,1.028,0.730,0.344,0.597,0.566,�쓌,3.0,��
2022/04/18,08:00,0.571,0.846,0.543,1.026,0.731,0.344,0.597,0.564,�쓌,3.3,��
2022/04/18,08:10,0.573,0.845,0.544,1.028,0.726,0.343,0.595,0.563,��,1.7,��
2022/04/18,08:20,0.572,0.843,0.545,1.027,0.729,0.344,0.595,0.564,��,2.0,��
2022/04/18,08:30,0.573,0.842,0.544,1.027,0.731,0.343,0.594,0.564,��,1.7,��
2022/04/18,08:40,0.573,0.843,0.544,1.025,0.730,0.344,0.595,0.564,��,2.0,��
2022/04/18,08:50,0.572,0.843,0.542,1.027,0.729,0.342,0.595,0.564,���k��,1.5,��
2022/04/18,09:00,0.572,0.843,0.544,1.027,0.728,0.345,0.595,0.562,���쓌,1.7,��
2022/04/18,09:10,0.571,0.843,0.543,1.027,0.731,0.345,0.597,0.565,���쓌,2.2,��
2022/04/18,09:20,0.571,0.844,0.543,1.029,0.730,0.344,0.596,0.562,���쓌,2.8,��
2022/04/18,09:30,0.570,0.843,0.543,1.027,0.728,0.346,0.595,0.562,�쓌,3.2,��
2022/04/18,09:40,0.569,0.843,0.543,1.027,0.727,0.343,0.596,0.561,�쓌,5.4,��
2022/04/18,09:50,0.570,0.845,0.544,1.027,0.727,0.344,0.595,0.564,�쓌,5.5,��
2022/04/18,10:00,0.569,0.845,0.543,1.027,0.729,0.345,0.597,0.562,�쓌,4.1,��
2022/04/18,10:10,0.570,0.844,0.543,1.027,0.728,0.345,0.596,0.562,��쓌,10.2,��
2022/04/18,10:20,0.570,0.844,0.543,1.028,0.728,0.345,0.596,0.563,��,11.9,��
2022/04/18,10:30,0.570,0.846,0.543,1.027,0.728,0.345,0.597,0.564,��,12.0,��
2022/04/18,10:40,0.570,0.843,0.544,1.030,0.730,0.345,0.596,0.562,��쓌,10.4,��
2022/04/18,10:50,0.571,0.845,0.545,1.028,0.727,0.344,0.597,0.564,��,10.8,��
2022/04/18,11:00,0.572,0.844,0.543,1.030,0.727,0.347,0.596,0.562,��,10.9,��
2022/04/18,11:10,0.571,0.843,0.542,1.030,0.729,0.344,0.598,0.563,��,10.6,��
2022/04/18,11:20,0.572,0.843,0.543,1.029,0.731,0.346,0.598,0.564,��,12.4,�L
2022/04/18,11:30,0.573,0.847,0.544,1.027,0.729,0.346,0.597,0.565,��쓌,11.1,��
2022/04/18,11:40,0.570,0.845,0.543,1.030,0.730,0.345,0.596,0.564,��,9.9,��
2022/04/18,11:50,0.572,0.846,0.542,1.028,0.728,0.345,0.596,0.564,��,10.0,��
2022/04/18,12:00,0.573,0.848,0.544,1.030,0.731,0.346,0.598,0.565,��쓌,10.3,��
2022/04/18,12:10,0.571,0.847,0.543,1.029,0.729,0.346,0.598,0.565,��,9.9,��
2022/04/18,12:20,0.573,0.849,0.543,1.027,0.730,0.345,0.596,0.564,��,10.4,��
2022/04/18,12:30,0.572,0.848,0.542,1.028,0.731,0.345,0.597,0.564,��,11.8,��
2022/04/18,12:40,0.571,0.846,0.545,1.031,0.731,0.346,0.598,0.563,��쓌,10.2,��
2022/04/18,12:50,0.573,0.847,0.544,1.029,0.731,0.344,0.597,0.564,��,13.1,�L
2022/04/18,13:00,0.572,0.847,0.541,1.029,0.731,0.345,0.596,0.564,��쓌,11.6,�L
2022/04/18,13:10,0.572,0.846,0.545,1.028,0.728,0.344,0.598,0.563,��쓌,13.1,�L
2022/04/18,13:20,0.572,0.844,0.544,1.029,0.729,0.347,0.597,0.564,��,12.8,��
2022/04/18,13:30,0.573,0.845,0.546,1.030,0.729,0.344,0.597,0.564,��,10.7,�L
2022/04/18,13:40,0.572,0.846,0.544,1.031,0.731,0.347,0.598,0.563,��,10.7,��
2022/04/18,13:50,0.572,0.843,0.545,1.030,0.730,0.345,0.599,0.563,��,11.0,��
2022/04/18,14:00,0.573,0.846,0.542,1.031,0.730,0.345,0.597,0.563,��,11.8,�L
2022/04/18,14:10,0.574,0.846,0.544,1.031,0.731,0.345,0.599,0.564,��,11.6,�L
2022/04/18,14:20,0.574,0.846,0.543,1.031,0.729,0.346,0.598,0.563,��,11.7,�L
2022/04/18,14:30,0.571,0.846,0.543,1.031,0.729,0.343,0.598,0.563,��쓌,12.2,�L
2022/04/18,14:40,0.575,0.843,0.543,1.032,0.730,0.346,0.595,0.565,��,12.1,�L
2022/04/18,14:50,0.574,0.844,0.546,1.032,0.727,0.345,0.597,0.565,��쐼,7.4,�L
2022/04/18,15:00,0.574,0.845,0.545,1.031,0.731,0.346,0.595,0.565,��,8.9,�L
2022/04/18,15:10,0.572,0.843,0.546,1.032,0.727,0.346,0.596,0.562,��,7.9,�L
2022/04/18,15:20,0.574,0.843,0.545,1.030,0.727,0.347,0.596,0.562,��,9.0,�L
2022/04/18,15:30,0.573,0.843,0.544,1.030,0.726,0.345,0.595,0.563,��,8.0,�L
2022/04/18,15:40,0.572,0.840,0.541,1.028,0.725,0.346,0.595,0.563,��,8.3,�L
2022/04/18,15:50,0.573,0.844,0.543,1.030,0.725,0.345,0.594,0.563,��,8.6,�L
2022/04/18,16:00,0.573,0.846,0.545,1.027,0.724,0.347,0.595,0.562,��,8.5,�L
2022/04/18,16:10,0.571,0.842,0.541,1.027,0.723,0.346,0.595,0.565,��,8.4,�L
2022/04/18,16:20,0.569,0.841,0.543,1.026,0.720,0.346,0.593,0.562,��,7.8,�L
2022/04/18,16:30,0.569,0.836,0.540,1.024,0.719,0.346,0.593,0.563,��,6.8,�L
2022/04/18,16:40,0.567,0.833,0.538,1.020,0.716,0.346,0.592,0.560,��,7.1,�L
2022/04/18,16:50,0.565,0.829,0.537,1.019,0.715,0.345,0.589,0.559,��,5.4,�L
2022/04/18,17:00,0.564,0.828,0.536,1.018,0.714,0.345,0.590,0.558,��,4.8,�L
2022/04/18,17:10,0.562,0.825,0.535,1.014,0.710,0.344,0.589,0.557,��,5.1,�L
2022/04/18,17:20,0.564,0.825,0.533,1.013,0.709,0.344,0.588,0.558,��,4.4,�L
2022/04/18,17:30,0.561,0.821,0.533,1.010,0.707,0.343,0.587,0.557,��쐼,4.4,�L
2022/04/18,17:40,0.560,0.819,0.532,1.007,0.705,0.344,0.588,0.556,��,4.0,�L
2022/04/18,17:50,0.558,0.818,0.531,1.004,0.703,0.342,0.585,0.556,��,2.6,�L
2022/04/18,18:00,0.556,0.816,0.531,1.004,0.704,0.341,0.586,0.555,��쐼,1.7,�L
2022/04/18,18:10,0.556,0.816,0.531,1.002,0.703,0.342,0.585,0.555,��쐼,1.2,�L
2022/04/18,18:20,0.557,0.814,0.531,1.000,0.701,0.342,0.585,0.554,���쐼,0.9,�L
2022/04/18,18:30,0.554,0.812,0.531,0.999,0.699,0.341,0.586,0.554,�k�k��,1.4,�L
2022/04/18,18:40,0.554,0.814,0.530,0.997,0.699,0.342,0.584,0.555,�k�k��,2.0,�L
2022/04/18,18:50,0.555,0.813,0.531,0.996,0.700,0.341,0.586,0.553,�k�k��,0.9,�L
2022/04/18,19:00,0.554,0.809,0.531,0.994,0.698,0.342,0.584,0.552,�k��,1.5,�L
2022/04/18,19:10,0.552,0.810,0.528,0.994,0.698,0.340,0.582,0.553,�k��,1.9,�L
2022/04/18,19:20,0.552,0.810,0.529,0.990,0.695,0.340,0.584,0.553,�k�k��,1.2,�L
2022/04/18,19:30,0.552,0.808,0.529,0.990,0.697,0.341,0.582,0.552,-,CALM,�L
2022/04/18,19:40,0.551,0.807,0.529,0.989,0.695,0.339,0.582,0.553,-,CALM,�L
2022/04/18,19:50,0.551,0.806,0.527,0.983,0.690,0.340,0.581,0.551,�k��,1.5,�L
2022/04/18,20:00,0.548,0.804,0.526,0.982,0.690,0.340,0.580,0.549,�k,1.7,�L
2022/04/18,20:10,0.548,0.803,0.527,0.980,0.688,0.339,0.579,0.550,�k,2.8,�L
2022/04/18,20:20,0.548,0.805,0.525,0.982,0.688,0.340,0.579,0.550,�k�k��,2.5,�L
2022/04/18,20:30,0.548,0.802,0.527,0.980,0.686,0.338,0.577,0.548,�k��,2.5,�L
2022/04/18,20:40,0.548,0.802,0.527,0.980,0.687,0.341,0.578,0.551,�k��,1.7,�L
2022/04/18,20:50,0.548,0.801,0.526,0.979,0.687,0.340,0.578,0.552,�k�k��,0.8,�L
2022/04/18,21:00,0.547,0.803,0.525,0.980,0.687,0.340,0.578,0.551,��,1.9,�L
2022/04/18,21:10,0.549,0.803,0.526,0.978,0.686,0.339,0.576,0.550,�쓌,2.3,�L
2022/04/18,21:20,0.548,0.804,0.526,0.980,0.686,0.340,0.577,0.551,�쓌,1.5,�L
2022/04/18,21:30,0.549,0.804,0.527,0.980,0.687,0.339,0.579,0.551,��,1.4,�L
2022/04/18,21:40,0.548,0.801,0.524,0.978,0.686,0.339,0.578,0.551,�k��,1.9,�L
2022/04/18,21:50,0.546,0.799,0.526,0.975,0.683,0.339,0.577,0.551,��,3.6,�L
2022/04/18,22:00,0.547,0.799,0.525,0.977,0.683,0.339,0.576,0.550,���쓌,2.6,�L
2022/04/18,22:10,0.549,0.804,0.526,0.978,0.686,0.341,0.579,0.551,�쓌,4.2,�L
2022/04/18,22:20,0.549,0.803,0.528,0.979,0.684,0.339,0.577,0.551,�쓌,4.4,�L
2022/04/18,22:30,0.550,0.806,0.527,0.980,0.687,0.341,0.578,0.552,��쓌,4.2,�L
2022/04/18,22:40,0.551,0.807,0.527,0.981,0.688,0.342,0.577,0.553,�쐼,2.5,�L
2022/04/18,22:50,0.551,0.808,0.528,0.981,0.686,0.341,0.577,0.553,��,2.5,�L
2022/04/18,23:00,0.552,0.807,0.528,0.982,0.686,0.343,0.577,0.553,�쓌,3.6,�L
2022/04/18,23:10,0.552,0.806,0.528,0.980,0.685,0.343,0.577,0.553,��쓌,2.0,�L
2022/04/18,23:20,0.553,0.807,0.530,0.983,0.688,0.342,0.579,0.553,�쓌,4.6,�L
2022/04/18,23:30,0.554,0.810,0.530,0.982,0.690,0.342,0.580,0.553,���쓌,6.8,�L
2022/04/18,23:40,0.553,0.812,0.529,0.983,0.690,0.342,0.580,0.552,��쐼,3.7,�L
2022/04/18,23:50,0.554,0.809,0.528,0.986,0.690,0.340,0.579,0.553,��,2.3,��
